Location: Ahausen
(50.4985°N, 8.2722°E)
Time: 03:49:20
(UTC+00:00)

Terra - Pass Details

Date: 18 September 2020
Orbit: 701 x 703 km, 98.2° (Epoch: 22 October)

Event Time Altitude Azimuth Distance (km) Brightness Sun altitude
Exits shadow 21:58:06 26° 316° (NW) 1,384 3.8 -35.2°
Drops below altitude 10° 22:00:25 10° 333° (NNW) 2,183 5.1 -35.3°
Sets 22:02:48 0° 341° (NNW) 3,106 6.2 -35.5°
